Simultaneous Nadir Overpasses (SNOs) Predictions

Prediction of SNOs near US between AQUA and NPP Satellite Orbit:

Table of predicted SNOs near US for the next 10.0 days since TLE Epoch: 12/4/2021
Index Date (AQUA) Time (AQUA) AQUA Lat,Lon Date (NPP) Time (NPP) NPP Lat,Lon Distance(km) Time Diff (sec)
1 12/05/2021 09:23:18 25.63,-112.89 12/05/2021 09:16:31 25.74,-113.50 61.95 407
2 12/08/2021 06:30:44 46.36, -65.02 12/08/2021 06:31:51 46.79, -67.21 173.78 67
3 12/08/2021 08:08:37 49.93, -88.32 12/08/2021 08:12:17 50.47, -91.01 200.48 220
4 12/08/2021 09:47:30 49.94,-113.04 12/08/2021 09:53:45 50.57,-116.34 244.77 375
5 12/10/2021 19:06:50 49.96, -92.57 12/10/2021 19:02:32 49.62, -94.55 146.96 258
6 12/10/2021 20:45:43 49.95,-117.29 12/10/2021 20:44:00 49.52,-119.88 192.28 103
7 12/13/2021 08:35:35 20.02,-101.89 12/13/2021 08:27:15 20.03,-102.22 33.97 500
8 12/13/2021 10:11:58 29.07,-124.41 12/13/2021 10:06:08 29.22,-125.23 81.99 350
